Regional Weather Roundup
Issued by NWS

Home | Current Version | Previous Version | Graphics & Text | Print | Product List | Glossary On
Versions: 1 2 3 4 5 6 7 8 9 10 11 12 13 14 15 16 17 18 19 20 21 22 23 24 25 26 27 28 29 30 31 32 33 34 35 36 37 38 39 40 41 42 43 44 45 46 47 48 49 50
557
ASUS44 KLIX 201605
RWRLA
LOUISIANA WEATHER ROUNDUP
NATIONAL WEATHER SERVICE NEW ORLEANS LA
1100 AM CDT MON OCT 20 2014

NOTE: "FAIR" INDICATES FEW OR NO CLOUDS BELOW 12,000 FEET WITH NO
      SIGNIFICANT WEATHER AND/OR OBSTRUCTIONS TO VISIBILITY.
      SKY/WX - SKY CONDITION AND SIGNIFICANT WEATHER.
      TMP - AIR TEMPERATURE.    DP   - DEWPOINT TEMPERATURE.
      RH  - RELATIVE HUMIDITY.  PRES - PRESSURE.
      HX  - HEAT INDEX.         WCI  - WIND CHILL INDEX.

*  THESE STATIONS ARE NOT NWS OR FAA STATIONS AND ARE NOT UNDER
   NWS QUALITY CONTROL.

LAZ040-048-061>063-065-066-069-201700-
SOUTHEAST LOUISIANA

CITY           SKY/WX    TMP DP  RH WIND       PRES   REMARKS
N.O. AUDUBON     N/A     78  57  48 MISG        N/A
N.O. INTL ARPT MOSUNNY   74  54  49 NE10      30.07S
N.O. LAKEFRONT SUNNY     72  57  59 NE9       30.08S
N.O. DOWNTOWN* FAIR      73  54  49 NE5       30.07F
SLIDELL        SUNNY     72  54  53 CALM      30.08R
BATON ROUGE    MOSUNNY   72  53  51 VRB5      30.08S
BOOTHVILLE     MOSUNNY   78  62  57 NE7       30.05F
BELLE CHASSE   MOSUNNY   75  60  59 NE8       30.06F
BOGALUSA*        N/A     70  53  55 CALM      30.10S
NEW ROADS*     FAIR      70  52  53 CALM      30.09S
GONZALES*      FAIR      72  57  59 CALM      30.08R
HAMMOND*       MOSUNNY   73  52  46 NE6       30.10R
HOUMA*         MOSUNNY   73  63  68 NE7       30.06R
PORT FOURCHON* SUNNY     77  63  61 E10       30.08S

$$

LAZ041-044-053-054-201700-
SOUTHWEST LOUISIANA

CITY           SKY/WX    TMP DP  RH WIND       PRES   REMARKS
LAKE CHARLES   SUNNY     72  58  61 NE7       30.07F
LAFAYETTE      MOSUNNY   72  58  61 VRB5      30.07F
PATTERSON        N/A    N/A N/A N/A CALM        N/A
SALT POINT       N/A     76  61  59 VRB5      30.06R
NEW IBERIA     SUNNY     74  58  57 NE8       30.08S
CHENAULT AIRPK MOSUNNY   70  59  68 VRB6      30.07

$$

LAZ027-028-201700-
CENTRAL LOUISIANA

CITY           SKY/WX    TMP DP  RH WIND       PRES   REMARKS
FORT POLK      MOSUNNY   70  54  55 VRB1      30.09F
ALEXANDRIA INT SUNNY     69  52  54 CALM      30.09S
ALEXANDRIA     SUNNY     70  54  56 N3        30.10S

$$

LAZ001-002-201700-
NORTHWEST LOUISIANA

CITY           SKY/WX    TMP DP  RH WIND       PRES   REMARKS
SHREVEPORT     MOSUNNY   67  50  54 CALM      30.11F
BARKSDALE AFB  SUNNY     64  50  60 CALM      30.12S
DTN SHREVEPORT SUNNY     65  49  56 CALM      30.12S

$$

LAZ014-016-201700-
NORTHEAST LOUISIANA

CITY           SKY/WX    TMP DP  RH WIND       PRES   REMARKS
MONROE         SUNNY     68  52  56 CALM      30.13S
TALLULAH       SUNNY     67  53  61 SE3       30.11F

$$




USA.gov is the U.S. government's official web portal to all federal, state and local government web resources and services.